BREEZE-M DEB [TANK] (47243 NORAD) Tracking and Keplerian Element Data
This shows tracking and keplerian element data for the satellite.
Feedback or suggestion? Click here.
Element | Value |
Catalog | 47243 |
Name | BREEZE-M DEB [TANK] |
Epoch Orbit | 62 |
Epoch Day | 12.51991258 |
Epoch Year | 2021 |
RAAN | 128.8184 |
Inclination | 60.0025 |
Eccentricity | 0.7283633 |
Argument of Perigee | 1.3952 |
Mean Anonmoly | 359.6943 |
Mean Motion | 2.19723804 |
Decay Rate | -1.94E-06 |
L1 | 1 47243U 20097B 21012.51991258 -.00000194 00000-0 00000-0 0 9999 |
L2 | 2 47243 60.0025 128.8184 7283633 1.3952 359.6943 2.19723804 622 |
Live tracking and technical data element details for BREEZE-M DEB [TANK] (NORAD 47243). BREEZE-M DEB [TANK] can be tracked NOW for your location showing map with azimuth and elevation plus other details from your city location.
Track the satellite on the map from your city or location and see movement details for azimuth, elevation, latitude, longitude, range, height, and movement on the map or in text.
IsCatalogInMostPopularTable: catalog: 47243, numindb: 9
Update: records affected: 1
GetName: 47243 BREEZE-M DEB [TANK]
Hit Count: updated at: Sun, 17 Jan 2021 10:30:08 GMT